TAIP52 YSNW-YSNW

Flight info

Callsign TAIP52
Flight time 1h 19m
Altitude 4500
Route 344636S1501873E 345143S1495664E 344851S1494363E 350904S1495750E 352699S1495103E 353326S1501132E 352008S1502533E 350578S1504225E
Aircraft EC35/L-SDE3GHIJ2J3J5M1RVWXY/C

Departure

Time 2026-04-24 04:06
Airport Naval Air Station Nowra - HMAS Albatross (YSNW)

Arrival

Time 2026-04-24 05:25
Airport Naval Air Station Nowra - HMAS Albatross (YSNW)
Time Latitude Longitude Altitude Speed Heading
2026-04-24 03:48 -34.94465 150.54604 361 ft 0 kts 333°
2026-04-24 04:01 -34.94465 150.54603 363 ft 1 kts 341°
2026-04-24 04:02 -34.94467 150.54597 367 ft 3 kts 300°
2026-04-24 04:02 -34.94457 150.54575 370 ft 4 kts 270°
2026-04-24 04:02 -34.94461 150.54534 371 ft 5 kts 233°
2026-04-24 04:02 -34.94493 150.54529 372 ft 7 kts 180°
2026-04-24 04:03 -34.94541 150.54551 372 ft 8 kts 154°
2026-04-24 04:03 -34.94610 150.54593 397 ft 17 kts 156°
2026-04-24 04:03 -34.94743 150.54664 376 ft 19 kts 147°
2026-04-24 04:03 -34.94808 150.54711 356 ft 6 kts 167°
2026-04-24 04:04 -34.94858 150.54750 365 ft 9 kts 154°
2026-04-24 04:04 -34.94917 150.54766 358 ft 7 kts 243°
2026-04-24 04:04 -34.94919 150.54730 354 ft 5 kts 284°
2026-04-24 04:04 -34.94923 150.54692 356 ft 4 kts 279°
2026-04-24 04:05 -34.94922 150.54720 360 ft 5 kts 284°
2026-04-24 04:05 -34.94920 150.54703 352 ft 7 kts 285°
2026-04-24 04:05 -34.94905 150.54511 444 ft 40 kts 286°
2026-04-24 04:05 -34.94853 150.54054 637 ft 64 kts 283°
2026-04-24 04:06 -34.94819 150.53564 968 ft 55 kts 269°
2026-04-24 04:06 -34.94830 150.53044 1192 ft 67 kts 277°
2026-04-24 04:06 -34.94504 150.52707 1455 ft 68 kts
2026-04-24 04:06 -34.94030 150.52741 1715 ft 69 kts
2026-04-24 04:07 -34.93553 150.52648 1945 ft 72 kts 338°
2026-04-24 04:07 -34.93189 150.52199 2169 ft 76 kts 316°
2026-04-24 04:07 -34.92853 150.51713 2418 ft 74 kts 318°
2026-04-24 04:07 -34.92512 150.51242 2663 ft 74 kts 318°
2026-04-24 04:08 -34.92168 150.50776 2907 ft 75 kts 318°
2026-04-24 04:08 -34.91814 150.50289 3141 ft 78 kts 317°
2026-04-24 04:08 -34.91448 150.49800 3380 ft 78 kts 317°
2026-04-24 04:08 -34.91076 150.49333 3611 ft 76 kts 318°
2026-04-24 04:09 -34.90720 150.48868 3838 ft 75 kts 318°
2026-04-24 04:09 -34.90368 150.48407 4061 ft 74 kts 318°
2026-04-24 04:09 -34.90027 150.47945 4278 ft 73 kts 318°
2026-04-24 04:09 -34.89685 150.47489 4496 ft 73 kts 318°
2026-04-24 04:10 -34.89302 150.46989 4518 ft 88 kts 318°
2026-04-24 04:10 -34.88844 150.46411 4508 ft 100 kts 317°
2026-04-24 04:10 -34.88339 150.45786 4482 ft 106 kts 317°
2026-04-24 04:11 -34.87325 150.44452 4452 ft 108 kts 316°
2026-04-24 04:11 -34.86819 150.43750 4454 ft 110 kts 316°
2026-04-24 04:11 -34.86316 150.43057 4480 ft 112 kts 315°
2026-04-24 04:11 -34.85792 150.42342 4486 ft 115 kts 315°
2026-04-24 04:12 -34.85247 150.41613 4488 ft 117 kts 315°
2026-04-24 04:12 -34.84694 150.40869 4484 ft 119 kts 316°
2026-04-24 04:12 -34.84138 150.40115 4480 ft 120 kts 316°
2026-04-24 04:12 -34.83589 150.39359 4476 ft 119 kts 315°
2026-04-24 04:13 -34.83036 150.38599 4476 ft 120 kts 315°
2026-04-24 04:13 -34.82479 150.37836 4476 ft 120 kts 315°
2026-04-24 04:13 -34.81918 150.37073 4477 ft 122 kts 315°
2026-04-24 04:13 -34.81351 150.36307 4474 ft 121 kts 315°
2026-04-24 04:14 -34.80794 150.35546 4477 ft 121 kts 315°
2026-04-24 04:14 -34.80232 150.34792 4488 ft 120 kts 319°
2026-04-24 04:14 -34.79635 150.34079 4483 ft 120 kts 321°
2026-04-24 04:14 -34.79019 150.33383 4469 ft 122 kts 321°
2026-04-24 04:15 -34.78393 150.32702 4474 ft 118 kts 325°
2026-04-24 04:15 -34.77730 150.32117 4485 ft 118 kts 329°
2026-04-24 04:15 -34.77049 150.31564 4483 ft 119 kts 331°
2026-04-24 04:15 -34.76361 150.31001 4476 ft 119 kts 330°
2026-04-24 04:16 -34.75668 150.30448 4474 ft 120 kts 331°
2026-04-24 04:16 -34.74964 150.29894 4472 ft 120 kts 331°
2026-04-24 04:16 -34.74271 150.29343 4470 ft 118 kts 330°
2026-04-24 04:16 -34.73597 150.28808 4472 ft 114 kts 331°
2026-04-24 04:17 -34.72926 150.28265 4481 ft 118 kts 331°
2026-04-24 04:17 -34.72225 150.27737 4486 ft 119 kts 334°
2026-04-24 04:17 -34.71501 150.27236 4481 ft 120 kts 335°
2026-04-24 04:17 -34.70771 150.26733 4475 ft 122 kts 335°
2026-04-24 04:18 -34.70037 150.26221 4470 ft 121 kts 332°
2026-04-24 04:18 -34.69721 150.25327 4415 ft 124 kts 265°
2026-04-24 04:18 -34.69893 150.24308 4438 ft 122 kts 259°
2026-04-24 04:18 -34.70105 150.23299 4455 ft 125 kts 258°
2026-04-24 04:19 -34.70338 150.22275 4452 ft 124 kts 258°
2026-04-24 04:19 -34.70567 150.21273 4453 ft 122 kts 258°
2026-04-24 04:19 -34.70804 150.20298 4456 ft 119 kts 257°
2026-04-24 04:19 -34.71051 150.19345 4461 ft 119 kts 256°
2026-04-24 04:20 -34.71305 150.18375 4466 ft 121 kts 255°
2026-04-24 04:20 -34.71476 150.17726 4466 ft 123 kts 256°
2026-04-24 04:20 -34.71813 150.16418 4465 ft 120 kts 255°
2026-04-24 04:20 -34.72065 150.15467 4462 ft 120 kts 254°
2026-04-24 04:21 -34.72237 150.14813 4466 ft 122 kts 255°
2026-04-24 04:21 -34.72497 150.13823 4464 ft 123 kts 254°
2026-04-24 04:21 -34.72750 150.12835 4463 ft 122 kts 255°
2026-04-24 04:21 -34.73087 150.11539 4462 ft 121 kts 255°
2026-04-24 04:22 -34.73261 150.10883 4462 ft 121 kts 254°
2026-04-24 04:22 -34.73521 150.09904 4467 ft 123 kts 254°
2026-04-24 04:22 -34.73786 150.08917 4463 ft 123 kts 254°
2026-04-24 04:22 -34.74051 150.07927 4460 ft 123 kts 255°
2026-04-24 04:23 -34.74319 150.06938 4459 ft 124 kts 255°
2026-04-24 04:23 -34.74595 150.05946 4459 ft 124 kts 254°
2026-04-24 04:23 -34.74865 150.04952 4459 ft 124 kts 254°
2026-04-24 04:23 -34.75145 150.03950 4458 ft 128 kts 251°
2026-04-24 04:24 -34.75517 150.02984 4450 ft 126 kts 245°
2026-04-24 04:24 -34.75906 150.02050 4453 ft 125 kts 244°
2026-04-24 04:24 -34.76311 150.01092 4456 ft 126 kts 244°
2026-04-24 04:24 -34.76707 150.00149 4455 ft 124 kts 244°
2026-04-24 04:25 -34.77096 149.99221 4460 ft 123 kts 244°
2026-04-24 04:25 -34.77484 149.98312 4461 ft 123 kts 245°
2026-04-24 04:25 -34.77887 149.97389 4463 ft 124 kts 244°
2026-04-24 04:25 -34.78293 149.96455 4460 ft 125 kts 244°
2026-04-24 04:26 -34.78702 149.95517 4460 ft 126 kts 245°
2026-04-24 04:26 -34.79121 149.94572 4458 ft 127 kts 244°
2026-04-24 04:26 -34.79530 149.93616 4461 ft 126 kts 250°
2026-04-24 04:26 -34.79524 149.92592 4485 ft 122 kts 284°
2026-04-24 04:27 -34.79355 149.91568 4479 ft 124 kts 287°
2026-04-24 04:27 -34.79149 149.90550 4474 ft 124 kts 288°
2026-04-24 04:27 -34.78932 149.89541 4459 ft 123 kts 289°
2026-04-24 04:27 -34.78717 149.88512 4362 ft 127 kts 289°
2026-04-24 04:28 -34.78489 149.87460 4260 ft 130 kts 289°
2026-04-24 04:28 -34.78239 149.86384 4113 ft 135 kts 289°
2026-04-24 04:28 -34.77969 149.85270 3930 ft 138 kts 289°
2026-04-24 04:28 -34.77688 149.84166 3781 ft 135 kts 291°
2026-04-24 04:29 -34.77414 149.83086 3653 ft 132 kts 291°
2026-04-24 04:29 -34.77180 149.82010 3510 ft 131 kts 285°
2026-04-24 04:29 -34.77042 149.80916 3375 ft 132 kts 279°
2026-04-24 04:29 -34.76969 149.79811 3241 ft 130 kts 274°
2026-04-24 04:30 -34.77155 149.78759 3116 ft 128 kts 254°
2026-04-24 04:30 -34.77441 149.77731 3041 ft 128 kts 252°
2026-04-24 04:30 -34.77742 149.76725 3053 ft 126 kts 251°
2026-04-24 04:30 -34.78044 149.75735 3060 ft 124 kts 248°
2026-04-24 04:31 -34.78488 149.74832 3054 ft 125 kts 230°
2026-04-24 04:31 -34.79175 149.74239 2922 ft 121 kts 201°
2026-04-24 04:31 -34.79936 149.73937 2751 ft 110 kts 203°
2026-04-24 04:31 -34.80439 149.73434 2622 ft 76 kts 236°
2026-04-24 04:32 -34.80710 149.72993 2507 ft 55 kts 233°
2026-04-24 04:32 -34.80925 149.72704 2409 ft 42 kts 238°
2026-04-24 04:32 -34.81110 149.72458 2315 ft 36 kts 231°
2026-04-24 04:32 -34.81247 149.72286 2214 ft 22 kts 231°
2026-04-24 04:33 -34.81309 149.72214 2166 ft 5 kts 239°
2026-04-24 04:33 -34.81314 149.72198 2158 ft 1 kts 234°
2026-04-24 04:33 -34.81316 149.72191 2155 ft 1 kts 238°
2026-04-24 04:33 -34.81321 149.72183 2150 ft 1 kts 249°
2026-04-24 04:34 -34.81324 149.72180 2146 ft 0 kts 237°
2026-04-24 04:35 -34.81326 149.72187 2150 ft 3 kts 247°
2026-04-24 04:35 -34.81355 149.72132 2162 ft 22 kts 242°
2026-04-24 04:36 -34.81503 149.71835 2290 ft 60 kts 233°
2026-04-24 04:36 -34.81821 149.71429 2509 ft 72 kts 194°
2026-04-24 04:36 -34.82299 149.71546 2691 ft 74 kts 142°
2026-04-24 04:36 -34.82753 149.71877 2876 ft 76 kts 143°
2026-04-24 04:37 -34.83202 149.72234 3018 ft 81 kts 143°
2026-04-24 04:37 -34.83707 149.72641 3086 ft 92 kts 142°
2026-04-24 04:37 -34.84270 149.73080 3133 ft 99 kts 143°
2026-04-24 04:37 -34.84890 149.73522 3159 ft 107 kts 146°
2026-04-24 04:38 -34.85513 149.73995 3273 ft 102 kts 145°
2026-04-24 04:38 -34.86103 149.74437 3419 ft 97 kts 145°
2026-04-24 04:38 -34.86665 149.74860 3539 ft 95 kts 144°
2026-04-24 04:38 -34.87244 149.75295 3576 ft 101 kts 144°
2026-04-24 04:39 -34.87852 149.75771 3587 ft 106 kts 144°
2026-04-24 04:39 -34.88484 149.76283 3587 ft 111 kts 142°
2026-04-24 04:39 -34.89131 149.76827 3579 ft 115 kts 142°
2026-04-24 04:39 -34.89733 149.77457 3578 ft 115 kts 132°
2026-04-24 04:40 -34.90295 149.78158 3575 ft 116 kts 130°
2026-04-24 04:40 -34.90841 149.78890 3577 ft 118 kts 126°
2026-04-24 04:40 -34.91354 149.79665 3561 ft 117 kts 125°
2026-04-24 04:40 -34.91972 149.80283 3545 ft 114 kts 142°
2026-04-24 04:41 -34.92636 149.80769 3547 ft 111 kts 146°
2026-04-24 04:41 -34.93321 149.81221 3556 ft 111 kts 148°
2026-04-24 04:41 -34.94006 149.81679 3563 ft 113 kts 148°
2026-04-24 04:41 -34.94695 149.82144 3559 ft 114 kts 148°
2026-04-24 04:42 -34.95394 149.82613 3563 ft 115 kts 148°
2026-04-24 04:42 -34.96105 149.83079 3564 ft 116 kts 148°
2026-04-24 04:42 -34.96822 149.83548 3563 ft 117 kts 148°
2026-04-24 04:42 -34.97543 149.84019 3562 ft 117 kts 148°
2026-04-24 04:43 -34.98245 149.84486 3563 ft 116 kts 147°
2026-04-24 04:43 -34.98953 149.84949 3568 ft 116 kts 148°
2026-04-24 04:43 -34.99659 149.85424 3570 ft 116 kts 148°
2026-04-24 04:43 -35.00365 149.85900 3570 ft 116 kts 148°
2026-04-24 04:44 -35.01072 149.86370 3567 ft 116 kts 148°
2026-04-24 04:44 -35.01774 149.86853 3568 ft 116 kts 148°
2026-04-24 04:44 -35.02475 149.87342 3567 ft 116 kts 148°
2026-04-24 04:44 -35.03183 149.87814 3560 ft 116 kts 148°
2026-04-24 04:45 -35.03890 149.88286 3568 ft 116 kts 148°
2026-04-24 04:45 -35.04588 149.88769 3570 ft 115 kts 148°
2026-04-24 04:45 -35.05288 149.89234 3568 ft 115 kts 148°
2026-04-24 04:45 -35.05996 149.89699 3569 ft 116 kts 149°
2026-04-24 04:46 -35.06703 149.90189 3569 ft 117 kts 148°
2026-04-24 04:46 -35.07413 149.90684 3566 ft 118 kts 147°
2026-04-24 04:46 -35.08129 149.91170 3565 ft 118 kts 148°
2026-04-24 04:46 -35.08842 149.91642 3558 ft 115 kts 148°
2026-04-24 04:47 -35.09548 149.92094 3563 ft 114 kts 148°
2026-04-24 04:47 -35.10248 149.92542 3564 ft 114 kts 148°
2026-04-24 04:47 -35.10947 149.93010 3570 ft 114 kts 148°
2026-04-24 04:47 -35.11645 149.93484 3568 ft 115 kts 148°
2026-04-24 04:48 -35.12327 149.93992 3570 ft 117 kts 146°
2026-04-24 04:48 -35.13033 149.94519 3560 ft 116 kts 152°
2026-04-24 04:48 -35.13811 149.94469 3545 ft 114 kts 191°
2026-04-24 04:48 -35.14574 149.94219 3557 ft 113 kts 194°
2026-04-24 04:49 -35.15333 149.93962 3565 ft 114 kts 195°
2026-04-24 04:49 -35.16110 149.93717 3570 ft 117 kts 194°
2026-04-24 04:49 -35.16904 149.93482 3566 ft 118 kts 193°
2026-04-24 04:49 -35.17702 149.93257 3565 ft 118 kts 193°
2026-04-24 04:50 -35.18503 149.93031 3564 ft 118 kts 193°
2026-04-24 04:50 -35.19302 149.92804 3564 ft 119 kts 193°
2026-04-24 04:50 -35.20104 149.92575 3565 ft 118 kts 193°
2026-04-24 04:50 -35.20894 149.92350 3566 ft 118 kts 193°
2026-04-24 04:51 -35.21690 149.92125 3571 ft 117 kts 193°
2026-04-24 04:51 -35.22481 149.91900 3571 ft 116 kts 193°
2026-04-24 04:51 -35.23277 149.91682 3573 ft 118 kts 193°
2026-04-24 04:51 -35.24084 149.91462 3565 ft 119 kts 193°
2026-04-24 04:52 -35.24895 149.91237 3571 ft 119 kts 192°
2026-04-24 04:52 -35.25701 149.91007 3572 ft 118 kts 193°
2026-04-24 04:52 -35.26500 149.90776 3571 ft 118 kts 193°
2026-04-24 04:52 -35.27299 149.90551 3575 ft 119 kts 193°
2026-04-24 04:53 -35.28108 149.90329 3576 ft 119 kts 193°
2026-04-24 04:53 -35.28917 149.90103 3578 ft 119 kts 193°
2026-04-24 04:53 -35.29727 149.89874 3576 ft 119 kts 193°
2026-04-24 04:53 -35.30536 149.89647 3572 ft 120 kts 193°
2026-04-24 04:54 -35.31346 149.89419 3572 ft 119 kts 193°
2026-04-24 04:54 -35.32142 149.89158 3576 ft 118 kts 195°
2026-04-24 04:54 -35.32927 149.88878 3575 ft 118 kts 196°
2026-04-24 04:54 -35.33712 149.88595 3581 ft 118 kts 196°
2026-04-24 04:55 -35.34512 149.88306 3577 ft 120 kts 196°
2026-04-24 04:55 -35.35318 149.88021 3573 ft 121 kts 197°
2026-04-24 04:55 -35.36121 149.87749 3570 ft 121 kts 197°
2026-04-24 04:55 -35.36930 149.87470 3561 ft 120 kts 196°
2026-04-24 04:56 -35.37703 149.87198 3467 ft 110 kts 196°
2026-04-24 04:56 -35.38415 149.86949 3468 ft 104 kts 196°
2026-04-24 04:56 -35.39109 149.86719 3481 ft 101 kts 196°
2026-04-24 04:56 -35.39781 149.86500 3494 ft 99 kts 196°
2026-04-24 04:57 -35.40450 149.86290 3505 ft 99 kts 196°
2026-04-24 04:57 -35.41114 149.86069 3502 ft 99 kts 196°
2026-04-24 04:57 -35.41784 149.85849 3505 ft 100 kts 196°
2026-04-24 04:57 -35.42458 149.85631 3505 ft 100 kts 196°
2026-04-24 04:58 -35.43127 149.85413 3506 ft 99 kts 196°
2026-04-24 04:58 -35.43785 149.85341 3512 ft 96 kts 152°
2026-04-24 04:58 -35.44002 149.86028 3546 ft 93 kts 68°
2026-04-24 04:58 -35.43727 149.86746 3542 ft 93 kts 59°
2026-04-24 04:59 -35.43419 149.87450 3533 ft 94 kts 58°
2026-04-24 04:59 -35.43113 149.88153 3525 ft 95 kts 58°
2026-04-24 04:59 -35.42793 149.88869 3520 ft 96 kts 57°
2026-04-24 04:59 -35.42473 149.89587 3514 ft 96 kts 57°
2026-04-24 05:00 -35.42177 149.90315 3505 ft 95 kts 60°
2026-04-24 05:00 -35.41913 149.91064 3511 ft 96 kts 62°
2026-04-24 05:00 -35.41655 149.91808 3476 ft 93 kts 63°
2026-04-24 05:00 -35.41415 149.92516 3445 ft 88 kts 63°
2026-04-24 05:01 -35.41186 149.93182 3432 ft 83 kts 62°
2026-04-24 05:01 -35.40973 149.93824 3427 ft 80 kts 62°
2026-04-24 05:01 -35.40774 149.94455 3424 ft 79 kts 62°
2026-04-24 05:01 -35.40574 149.95075 3425 ft 77 kts 62°
2026-04-24 05:02 -35.40370 149.95677 3428 ft 76 kts 62°
2026-04-24 05:02 -35.40156 149.96280 3484 ft 79 kts 62°
2026-04-24 05:02 -35.39934 149.96920 3531 ft 84 kts 62°
2026-04-24 05:02 -35.39697 149.97603 3548 ft 91 kts 61°
2026-04-24 05:03 -35.39457 149.98335 3546 ft 94 kts 62°
2026-04-24 05:03 -35.39201 149.99085 3544 ft 98 kts 62°
2026-04-24 05:03 -35.38924 149.99867 3536 ft 101 kts 62°
2026-04-24 05:03 -35.38614 150.00636 3545 ft 101 kts 56°
2026-04-24 05:04 -35.38253 150.01372 3539 ft 100 kts 53°
2026-04-24 05:04 -35.37867 150.02081 3536 ft 100 kts 52°
2026-04-24 05:04 -35.37472 150.02779 3533 ft 100 kts 52°
2026-04-24 05:04 -35.37086 150.03482 3527 ft 99 kts 54°
2026-04-24 05:05 -35.36724 150.04180 3526 ft 98 kts 54°
2026-04-24 05:05 -35.36365 150.04887 3531 ft 98 kts 55°
2026-04-24 05:05 -35.35994 150.05602 3533 ft 100 kts 55°
2026-04-24 05:05 -35.35617 150.06334 3534 ft 103 kts 54°
2026-04-24 05:06 -35.35237 150.07066 3535 ft 101 kts 53°
2026-04-24 05:06 -35.34860 150.07777 3537 ft 99 kts 53°
2026-04-24 05:06 -35.34486 150.08467 3540 ft 97 kts 53°
2026-04-24 05:06 -35.34104 150.09157 3540 ft 98 kts 53°
2026-04-24 05:07 -35.33721 150.09849 3539 ft 98 kts 53°
2026-04-24 05:07 -35.33341 150.10555 3540 ft 100 kts 53°
2026-04-24 05:07 -35.32951 150.11267 3539 ft 100 kts 53°
2026-04-24 05:07 -35.32558 150.11966 3539 ft 99 kts 53°
2026-04-24 05:08 -35.32172 150.12662 3543 ft 98 kts 53°
2026-04-24 05:08 -35.31791 150.13355 3546 ft 99 kts 52°
2026-04-24 05:08 -35.31374 150.14029 3547 ft 99 kts 49°
2026-04-24 05:08 -35.30928 150.14692 3544 ft 102 kts 48°
2026-04-24 05:09 -35.30472 150.15362 3538 ft 102 kts 47°
2026-04-24 05:09 -35.30172 150.15800 3537 ft 100 kts 47°
2026-04-24 05:09 -35.29579 150.16665 3540 ft 100 kts 47°
2026-04-24 05:09 -35.29284 150.17095 3539 ft 99 kts 47°
2026-04-24 05:10 -35.28836 150.17739 3547 ft 99 kts 47°
2026-04-24 05:10 -35.28260 150.18612 3548 ft 99 kts 47°
2026-04-24 05:10 -35.27974 150.19065 3542 ft 99 kts 49°
2026-04-24 05:10 -35.27580 150.19767 3538 ft 99 kts 53°
2026-04-24 05:11 -35.27201 150.20465 3546 ft 99 kts 53°
2026-04-24 05:11 -35.26822 150.21181 3545 ft 101 kts 53°
2026-04-24 05:11 -35.26464 150.21901 3543 ft 99 kts 54°
2026-04-24 05:11 -35.26117 150.22624 3546 ft 98 kts 55°
2026-04-24 05:12 -35.25762 150.23347 3547 ft 99 kts 54°
2026-04-24 05:12 -35.25404 150.24070 3546 ft 98 kts 54°
2026-04-24 05:12 -35.25062 150.24783 3548 ft 96 kts 55°
2026-04-24 05:12 -35.24719 150.25490 3550 ft 98 kts 55°
2026-04-24 05:13 -35.23957 150.26883 3611 ft 104 kts 50°
2026-04-24 05:13 -35.23507 150.27628 3630 ft 114 kts 49°
2026-04-24 05:13 -35.22996 150.28410 3626 ft 120 kts 49°
2026-04-24 05:14 -35.22457 150.29206 3618 ft 122 kts 48°
2026-04-24 05:14 -35.21918 150.30003 3613 ft 121 kts 48°
2026-04-24 05:14 -35.21379 150.30783 3613 ft 119 kts 48°
2026-04-24 05:14 -35.20842 150.31550 3614 ft 119 kts 48°
2026-04-24 05:15 -35.20296 150.32332 3617 ft 122 kts 48°
2026-04-24 05:15 -35.19747 150.33126 3615 ft 122 kts 48°
2026-04-24 05:15 -35.19209 150.33901 3613 ft 119 kts 48°
2026-04-24 05:15 -35.18672 150.34675 3618 ft 120 kts 48°
2026-04-24 05:16 -35.18130 150.35462 3614 ft 123 kts 48°
2026-04-24 05:16 -35.17579 150.36258 3604 ft 122 kts 48°
2026-04-24 05:16 -35.17037 150.37035 3602 ft 119 kts 48°
2026-04-24 05:16 -35.16506 150.37800 3605 ft 117 kts 48°
2026-04-24 05:17 -35.15980 150.38560 3610 ft 117 kts 48°
2026-04-24 05:17 -35.15451 150.39318 3612 ft 117 kts 48°
2026-04-24 05:17 -35.14921 150.40075 3612 ft 117 kts 47°
2026-04-24 05:17 -35.14386 150.40807 3621 ft 115 kts 45°
2026-04-24 05:18 -35.13833 150.41507 3622 ft 115 kts 44°
2026-04-24 05:18 -35.13269 150.42196 3622 ft 114 kts 43°
2026-04-24 05:18 -35.12701 150.42873 3624 ft 114 kts 43°
2026-04-24 05:18 -35.12123 150.43558 3624 ft 116 kts 43°
2026-04-24 05:19 -35.11544 150.44248 3625 ft 117 kts 43°
2026-04-24 05:19 -35.10961 150.44945 3622 ft 118 kts 43°
2026-04-24 05:19 -35.10378 150.45640 3619 ft 116 kts 43°
2026-04-24 05:19 -35.09819 150.46316 3555 ft 113 kts 43°
2026-04-24 05:20 -35.09273 150.46993 3452 ft 110 kts 43°
2026-04-24 05:20 -35.08716 150.47626 3358 ft 108 kts 38°
2026-04-24 05:20 -35.08122 150.48185 3244 ft 108 kts 35°
2026-04-24 05:20 -35.07511 150.48727 3120 ft 109 kts 34°
2026-04-24 05:21 -35.06890 150.49264 2997 ft 110 kts 34°
2026-04-24 05:21 -35.06243 150.49774 2869 ft 111 kts 28°
2026-04-24 05:21 -35.05529 150.50166 2740 ft 113 kts 24°
2026-04-24 05:21 -35.04802 150.50526 2609 ft 112 kts 22°
2026-04-24 05:22 -35.04078 150.50872 2482 ft 112 kts 22°
2026-04-24 05:22 -35.03345 150.51207 2359 ft 113 kts 22°
2026-04-24 05:22 -35.02608 150.51538 2236 ft 112 kts 22°
2026-04-24 05:22 -35.01872 150.51865 2111 ft 113 kts 22°
2026-04-24 05:23 -35.01132 150.52183 1997 ft 113 kts 22°
2026-04-24 05:23 -35.00394 150.52495 1882 ft 112 kts 22°
2026-04-24 05:23 -34.99665 150.52809 1769 ft 111 kts 22°
2026-04-24 05:23 -34.98932 150.53140 1661 ft 113 kts 22°
2026-04-24 05:24 -34.98185 150.53419 1520 ft 116 kts 12°
2026-04-24 05:24 -34.97453 150.53688 1475 ft 107 kts 35°
2026-04-24 05:24 -34.96944 150.54296 1425 ft 97 kts 51°
2026-04-24 05:24 -34.96550 150.54894 1326 ft 86 kts 46°
2026-04-24 05:25 -34.96084 150.55224 1301 ft 70 kts 12°
2026-04-24 05:25 -34.95705 150.55089 1226 ft 45 kts 346°
2026-04-24 05:25 -34.95498 150.54946 1129 ft 29 kts 349°
2026-04-24 05:25 -34.95321 150.54836 1008 ft 27 kts 351°
2026-04-24 05:26 -34.95178 150.54730 913 ft 22 kts 347°
2026-04-24 05:26 -34.95052 150.54685 777 ft 15 kts 354°
2026-04-24 05:26 -34.94948 150.54695 624 ft 18 kts 348°
2026-04-24 05:26 -34.94830 150.54669 474 ft 15 kts 352°
2026-04-24 05:27 -34.94763 150.54658 371 ft 3 kts
2026-04-24 05:27 -34.94749 150.54657 365 ft 4 kts
2026-04-24 05:27 -34.94727 150.54654 370 ft 5 kts 12°
2026-04-24 05:27 -34.94708 150.54664 364 ft 3 kts 45°
2026-04-24 05:28 -34.94695 150.54680 362 ft 4 kts 58°
2026-04-24 05:28 -34.94684 150.54706 365 ft 3 kts 59°
2026-04-24 05:28 -34.94659 150.54728 371 ft 5 kts
2026-04-24 05:28 -34.94641 150.54736 360 ft 2 kts 344°
2026-04-24 05:29 -34.94633 150.54730 356 ft 1 kts 339°
2026-04-24 05:29 -34.94630 150.54729 352 ft 0 kts 337°